This is the latest recevied weather packets stored in our database for station/object EA8VD-10. If no packets are shown the sender has not sent any weather packets the latest 1 day(s).
| Time | Temp. | Humidity | Pressure | Rain* | Wind** | Luminosity | Snow |
|---|---|---|---|---|---|---|---|
| 1788648629 | 28.33° C | 32% | 914 hPa | - | - | - | - |
| 1788646828 | 28.89° C | 32% | 914 hPa | - | - | - | - |
| 1788645028 | 29.44° C | 31% | 914 hPa | - | - | - | - |
| 1788643228 | 29.44° C | 33% | 914 hPa | - | - | - | - |
| 1788641428 | 28.89° C | 33% | 914 hPa | - | - | - | - |
| 1788639628 | 28.89° C | 37% | 913 hPa | - | - | - | - |
| 1788637828 | 28.89° C | 39% | 913 hPa | - | - | - | - |
| 1788636028 | 31.11° C | 35% | 913 hPa | - | - | - | - |
| 1788634227 | 35.56° C | 32% | 913 hPa | - | - | - | - |
| 1788632427 | 37.22° C | 42% | 912 hPa | - | - | - | - |
| 1788630627 | 37.78° C | 41% | 912 hPa | - | - | - | - |
| 1788628827 | 36.11° C | 33% | 912 hPa | - | - | - | - |
| 1788627027 | 38.33° C | 26% | 912 hPa | - | - | - | - |
| 1788625227 | 39.44° C | 23% | 912 hPa | - | - | - | - |
| 1788623426 | 37.78° C | 25% | 912 hPa | - | - | - | - |
| 1788596766 | 31.67° C | 29% | 913 hPa | - | - | - | - |
| 1788587500 | 29.44° C | 22% | 912 hPa | - | - | - | - |
| 1788585700 | 28.33° C | 24% | 912 hPa | - | - | - | - |
| 1788583900 | 27.22° C | 26% | 912 hPa | - | - | - | - |
| 1788582099 | 27.78° C | 24% | 912 hPa | - | - | - | - |
| 1788580299 | 26.11° C | 30% | 912 hPa | - | - | - | - |
| 1788578499 | 26.67° C | 27% | 912 hPa | - | - | - | - |
| 1788576699 | 26.67° C | 28% | 913 hPa | - | - | - | - |
| 1788574899 | 26.67° C | 30% | 913 hPa | - | - | - | - |
| 1788573099 | 26.67° C | 30% | 913 hPa | - | - | - | - |
* Rain since midnight (hover to see other rain measurements)
** Current wind speed in m/s (hover to see current wind gust speed)